Location: Huppendorf
(49.9333°N, 11.1500°E)
Time: 19:09:22
(UTC+00:00)

ARGOS Delta rocket - Pass Details

Date: 27 February 2020
Orbit: 636 x 837 km, 96.5° (Epoch: 07 April)

Event Time Altitude Azimuth Distance (km) Brightness Sun altitude
Exits shadow 19:13:08 33° 182° (S) 1,077 4.6 -23.1°
Maximum altitude 19:15:03 73° 259° (W) 682 3.8 -23.4°
Drops below altitude 10° 19:19:36 10° 345° (NNW) 2,093 6.6 -24.1°
Sets 19:21:53 0° 347° (NNW) 3,035 7.5 -24.5°
